[[{"header":{"parameterUnit":"m.s-1","parameterCategory":1,"la1":30.2991,"la2":30.254,"lo1":-89.0895,"lo2":-89.0444,"dy":0.0017,"dx":0.0017,"nx":28,"ny":28,"refTime":"2025-04-28T09:00:00:Z","depth":0,"parameterNumber":2,"parameterNumberName":"U-component_of_WINDS"},"data":[0,0,0,0,0,0,0,0,0,0,0,0,0,0,0,0,0,0,0,0,0,0,0,0,0,0,0,0,0,0,0,0,0,0,0,0,0,0,0,0,0,0,0,0,0,0,0,0,0,0,0,0,0,0,0,0,0,0,1.5015,1.5015,0,1.505,1.5051,1.5051,1.4996,1.4994,1.4992,1.499,1.5031,1.5034,1.5037,0,0,0,0,0,0,0,0,0,0,0,0,0,1.4901,1.4903,1.5015,1.5015,1.5016,1.505,1.5051,1.5051,1.4996,1.4994,1.4992,1.499,1.503,1.5034,1.5037,0,0,0,0,0,0,0,0,0,0,0,0,0,1.4945,1.4904,1.5015,1.4992,1.4991,1.505,1.5051,1.5051,1.4997,1.4994,1.4991,1.4989,1.5029,1.5033,1.5038,1.5122,0,0,1.5051,1.5053,0,0,0,0,0,0,0,0,1.4943,1.4949,1.4995,1.4994,1.4992,1.5016,1.5025,1.5075,1.4998,1.4995,1.499,1.4987,1.5029,1.5033,1.5046,1.5124,1.5125,1.5051,1.5054,1.5056,1.5057,0,0,0,0,0,0,0,1.494,1.4947,1.5029,1.4996,1.4994,1.4981,1.4984,1.5035,1.5028,1.4995,1.4991,1.4996,1.5027,1.5042,1.5047,1.5126,1.5051,1.5055,1.5057,1.5059,1.527,1.5273,0,0,0,0,0,0,1.4939,1.4945,1.5028,1.503,1.496,1.4985,1.4989,1.5011,1.5027,1.5026,1.4998,1.4993,1.5036,1.5042,1.5048,1.5144,1.5056,1.506,1.5062,1.5267,1.5271,1.5274,0,0,0,0,0,0,1.4937,1.4947,1.5026,1.4986,1.4996,1.499,1.5016,1.5013,1.5028,1.5029,1.5028,1.5014,1.5034,1.5042,1.5102,1.5145,1.5062,1.5065,1.5264,1.5269,1.5273,1.534,0,0,0,0,0,0,1.4934,1.4946,1.4978,1.4988,1.4998,1.508,1.5019,1.5016,1.5035,1.5029,1.5044,1.5044,1.5032,1.5096,1.5107,1.5149,1.5069,1.526,1.5266,1.5271,1.5334,1.5346,1.5357,0,0,0,0,0,1.493,1.4997,1.498,1.499,1.5037,1.5083,1.5089,1.5073,1.5039,1.507,1.507,1.5043,1.5139,1.5103,1.5114,1.5159,1.5257,1.5264,1.5271,1.5329,1.5344,1.5356,0,0,0,0,0,0,1.4995,1.4998,1.4979,1.5052,1.5067,1.5073,1.5113,1.509,1.5117,1.511,1.509,1.5094,1.5159,1.5165,1.5125,1.5239,1.5192,1.5202,1.5232,1.5247,1.5258,1.5254,1.5072,0,0,0,0,0,1.5018,1.5054,1.5055,1.5119,1.5127,1.5119,1.5138,1.5124,1.514,1.5147,1.5152,1.5169,1.5202,1.5225,1.5257,1.5335,1.5336,1.5371,1.5382,1.5392,1.5399,1.5438,1.5452,1.5297,1.5297,1.5297,0,0,1.5066,1.5071,1.5096,1.5132,1.5142,1.5179,1.5125,1.5168,1.5195,1.5154,1.521,1.5215,1.5232,1.5301,1.5332,1.5309,1.5443,1.54,1.5408,1.541,1.5446,1.5461,1.5474,1.5301,1.5301,1.53,0,0,1.517,1.518,1.5232,1.5242,1.5258,1.5251,1.5264,1.5273,1.5273,1.5329,1.5298,1.5331,1.539,1.5403,1.5417,1.5524,1.5499,1.5535,1.5594,1.5632,1.5644,1.5655,1.569,1.5703,1.5543,1.5543,1.5543,0,1.5228,1.5282,1.5262,1.5305,1.5321,1.5284,1.5336,1.5348,1.5374,1.5385,1.5359,1.5429,1.5439,1.5508,1.5534,1.5548,1.556,1.5533,1.5644,1.5654,1.5664,1.5697,1.5711,1.5547,1.5547,1.5547,1.5546,0,1.535,1.5388,1.5429,1.5451,1.5472,1.552,1.5507,1.553,1.5514,1.5511,1.5567,1.5577,1.5607,1.5624,1.561,1.5691,1.5675,1.5647,1.5599,1.5683,1.5714,1.5727,1.5553,1.5552,1.5551,1.555,0,0,1.5498,1.5507,1.5522,1.553,1.5543,1.5572,1.5618,1.5645,1.5665,1.5684,1.572,1.5769,1.5742,1.5758,1.5745,1.5779,1.5858,1.5745,1.5745,1.5764,1.5945,1.5964,1.598,1.5842,1.5845,1.5847,1.5942,0,1.56,1.5677,1.5659,1.5734,1.5768,1.5731,1.577,1.5783,1.578,1.5808,1.5806,1.584,1.5803,1.5811,1.5843,1.5842,1.5894,1.5835,1.5875,1.5877,1.5869,1.5996,1.6018,1.6108,1.5955,1.5957,1.5958,0,1.573,1.575,1.5828,1.5832,1.5845,1.5881,1.5903,1.5931,1.5943,1.5939,1.5956,1.5935,1.598,1.5932,1.5992,1.5952,1.5968,1.597,1.5973,1.5975,1.5921,1.5999,1.6136,1.6149,1.5978,1.5976,1.5975,0,1.5826,1.5873,1.5925,1.5933,1.594,1.5965,1.597,1.5979,1.5996,1.6017,1.6027,1.6053,1.6067,1.6088,1.6075,1.6042,1.6136,1.6089,1.6133,1.6133,1.6153,1.6152,1.6293,1.6167,1.6167,1.6167,1.6167,0,1.594,1.5989,1.5967,1.5999,1.6052,1.6031,1.6084,1.6084,1.6092,1.6123,1.6095,1.6125,1.6107,1.6135,1.6126,1.6175,1.6183,1.6179,1.6176,1.6181,1.6181,1.6189,1.6182,1.617,1.617,1.6169,1.6168,0,1.6056,1.6044,1.6097,1.6098,1.61,1.6138,1.6139,1.6169,1.6163,1.6202,1.621,1.6202,1.6233,1.6222,1.6258,1.6251,1.6313,1.6303,1.6308,1.6304,1.6348,1.6343,1.6498,1.6516,1.6381,1.6382,1.6384,0,1.6129,1.6165,1.6169,1.6186,1.6192,1.6221,1.6237,1.6218,1.6236,1.6251,1.6278,1.6306,1.6328,1.638,1.6377,1.6403,1.6392,1.6444,1.6395,1.6398,1.6389,1.6386,1.6388,1.6453,1.6455,1.6456,1.6457,0,1.6259,1.625,1.6273,1.6294,1.6313,1.6329,1.6343,1.6359,1.634,1.6362,1.6392,1.6409,1.6442,1.647,1.6493,1.6497,1.6474,1.6472,1.6483,1.6488,1.6488,1.6485,1.6332,1.6469,1.6467,1.6467,1.6466,1.6466,1.6353,1.6382,1.6388,1.6414,1.6422,1.6434,1.646,1.6457,1.6481,1.6505,1.6493,1.6528,1.6537,1.6564,1.6572,1.6599,1.6579,1.6596,1.6599,1.6603,1.6607,1.6485,1.6603,1.6603,1.6603,1.6602,1.6602,0,1.6478,1.648,1.6504,1.6522,1.6542,1.6517,1.653,1.6548,1.6579,1.6589,1.6609,1.6643,1.6669,1.6668,1.6692,1.6714,1.6703,1.672,1.6718,1.6718,1.6626,1.6612,1.6728,1.6728,1.6728,1.6728,1.6728,1.6728,1.6546,1.6592,1.6583,1.6633,1.6634,1.6666,1.6675,1.6686,1.6693,1.6731,1.6752,1.675,1.6755,1.6779,1.6801,1.68,1.681,1.683,1.6825,1.6738,1.6726,1.6714,1.6701,1.6833,1.6833,1.6915,1.6916,1.6917]},{"header":{"parameterUnit":"m.s-1","parameterCategory":1,"la1":30.2991,"la2":30.254,"lo1":-89.0895,"lo2":-89.0444,"dy":0.0017,"dx":0.0017,"nx":28,"ny":28,"refTime":"2025-04-28T09:00:00:Z","depth":0,"parameterNumber":3,"parameterNumberName":"V-component_of_WINDS"},"data":[0,0,0,0,0,0,0,0,0,0,0,0,0,0,0,0,0,0,0,0,0,0,0,0,0,0,0,0,0,0,0,0,0,0,0,0,0,0,0,0,0,0,0,0,0,0,0,0,0,0,0,0,0,0,0,0,0,0,3.0532,3.0534,0,3.0651,3.0652,3.0654,3.0651,3.0649,3.0647,3.0646,3.076,3.0764,3.0769,0,0,0,0,0,0,0,0,0,0,0,0,0,3.0294,3.0299,3.0532,3.0534,3.0535,3.0651,3.0652,3.0654,3.0651,3.0649,3.0647,3.0645,3.0758,3.0764,3.0769,0,0,0,0,0,0,0,0,0,0,0,0,0,3.0404,3.03,3.0532,3.0548,3.055,3.065,3.0652,3.0654,3.0651,3.0649,3.0646,3.0644,3.0757,3.0763,3.077,3.086,0,0,3.0791,3.0794,0,0,0,0,0,0,0,0,3.0398,3.0412,3.0544,3.0547,3.055,3.0634,3.061,3.0723,3.0652,3.0613,3.0646,3.0643,3.0719,3.0729,3.0756,3.0865,3.087,3.0791,3.0795,3.0798,3.08,0,0,0,0,0,0,0,3.039,3.0407,3.0579,3.0546,3.0549,3.0546,3.0559,3.0632,3.0678,3.0616,3.0616,3.063,3.072,3.075,3.0759,3.0872,3.0791,3.0797,3.0801,3.0804,3.1058,3.1061,0,0,0,0,0,0,3.038,3.0401,3.0575,3.0582,3.0467,3.0552,3.0567,3.0609,3.0677,3.0685,3.0632,3.063,3.0739,3.0751,3.0763,3.0872,3.0798,3.0805,3.0809,3.1056,3.1059,3.1062,0,0,0,0,0,0,3.0375,3.0396,3.057,3.0492,3.0514,3.0559,3.0606,3.0613,3.0642,3.069,3.0697,3.0655,3.0738,3.0753,3.0836,3.0876,3.0808,3.0814,3.1053,3.1057,3.1061,3.1091,0,0,0,0,0,0,3.0368,3.0394,3.0431,3.0493,3.0518,3.0644,3.0609,3.0617,3.0655,3.0653,3.0712,3.072,3.0737,3.0826,3.0843,3.0884,3.0819,3.1049,3.1054,3.1059,3.1086,3.1095,3.1103,0,0,0,0,0,3.036,3.0433,3.0433,3.0454,3.0565,3.0646,3.066,3.0681,3.0658,3.0694,3.0724,3.0718,3.0869,3.0834,3.0853,3.0897,3.1047,3.1053,3.1059,3.1083,3.1094,3.1103,0,0,0,0,0,0,3.0372,3.0442,3.0442,3.0538,3.0587,3.0646,3.0692,3.0692,3.0747,3.0742,3.0763,3.0776,3.0859,3.0886,3.0847,3.0987,3.0954,3.0965,3.0966,3.0977,3.0985,3.0976,3.0825,0,0,0,0,0,3.0386,3.0449,3.0505,3.0584,3.0609,3.0646,3.0682,3.0694,3.0744,3.0764,3.08,3.0847,3.0905,3.0942,3.0998,3.109,3.1102,3.1129,3.1138,3.1144,3.1152,3.1201,3.1214,3.1082,3.1082,3.1082,0,0,3.0415,3.0461,3.0499,3.0588,3.0627,3.0689,3.0663,3.073,3.0775,3.0773,3.0854,3.0882,3.0935,3.1023,3.1063,3.1048,3.1192,3.1152,3.1157,3.1162,3.1209,3.1221,3.1232,3.1086,3.1085,3.1084,0,0,3.05,3.0542,3.0612,3.0652,3.0713,3.0737,3.0754,3.0813,3.0832,3.0914,3.0914,3.0966,3.1066,3.1104,3.1136,3.1234,3.123,3.1251,3.1294,3.1342,3.1352,3.1361,3.1395,3.1407,3.1259,3.126,3.126,0,3.0528,3.0624,3.0648,3.0715,3.0753,3.0757,3.0826,3.0863,3.0937,3.0962,3.0945,3.107,3.1106,3.1201,3.1225,3.1252,3.1269,3.1244,3.1349,3.1359,3.1368,3.14,3.1412,3.1262,3.1261,3.1261,3.1261,0,3.0655,3.0721,3.077,3.0844,3.0888,3.0955,3.0987,3.1027,3.1035,3.106,3.1142,3.1186,3.125,3.1273,3.1281,3.137,3.1358,3.1345,3.1313,3.1382,3.1412,3.1425,3.1265,3.1264,3.1263,3.1263,0,0,3.075,3.0837,3.0855,3.0888,3.0954,3.1004,3.1071,3.1136,3.117,3.1221,3.1276,3.136,3.1348,3.1384,3.1396,3.1438,3.1511,3.1419,3.142,3.1433,3.1609,3.1618,3.1632,3.1509,3.1511,3.1513,3.1604,0,3.0841,3.0963,3.0986,3.1091,3.1151,3.1155,3.1213,3.1258,3.1283,3.1335,3.1361,3.1421,3.1401,3.1423,3.1464,3.1493,3.1546,3.1487,3.1557,3.1559,3.1543,3.1648,3.1658,3.1742,3.1616,3.1618,3.162,0,3.0964,3.102,3.1132,3.119,3.1215,3.1268,3.1328,3.1379,3.143,3.1445,3.1486,3.1492,3.1559,3.1524,3.1615,3.1574,3.1604,3.1622,3.1626,3.1632,3.1593,3.1656,3.177,3.1782,3.1639,3.1637,3.1636,0,3.1021,3.1124,3.1204,3.1233,3.1302,3.1338,3.1368,3.1417,3.1454,3.1506,3.153,3.1589,3.162,3.1664,3.1685,3.1659,3.1774,3.1741,3.1786,3.1785,3.1809,3.1807,3.1928,3.183,3.183,3.183,3.183,0,3.1119,3.1187,3.1231,3.128,3.1355,3.1379,3.1452,3.1481,3.1524,3.1576,3.1582,3.1631,3.1657,3.1708,3.1725,3.1796,3.181,3.1822,3.1826,3.1822,3.182,3.1841,3.1835,3.1833,3.1833,3.1832,3.1831,0,3.1196,3.1228,3.1315,3.1374,3.1391,3.1443,3.1492,3.1539,3.1563,3.163,3.1646,3.1684,3.1745,3.1771,3.1845,3.1856,3.1938,3.1938,3.1922,3.1923,3.1965,3.196,3.2103,3.2122,3.2013,3.2014,3.2014,0,3.1256,3.1309,3.1374,3.1411,3.1443,3.1502,3.1541,3.1565,3.1605,3.1666,3.1704,3.1766,3.1817,3.1913,3.1946,3.2002,3.2002,3.2048,3.201,3.2004,3.2001,3.1997,3.2002,3.2054,3.2055,3.2056,3.2057,0,3.1359,3.1373,3.143,3.1492,3.1539,3.1588,3.1636,3.1666,3.1697,3.1741,3.1805,3.1844,3.1921,3.1981,3.2039,3.2067,3.2067,3.2069,3.2082,3.2077,3.2066,3.2071,3.1939,3.2065,3.2064,3.2064,3.2063,3.2063,3.1429,3.1475,3.1529,3.1591,3.1631,3.1675,3.1722,3.1753,3.1808,3.1874,3.1884,3.1952,3.1999,3.2077,3.2107,3.2159,3.2147,3.2166,3.2171,3.2175,3.2177,3.2059,3.2169,3.2169,3.2169,3.2169,3.2169,0,3.1531,3.1566,3.1624,3.1692,3.1741,3.1739,3.1792,3.1832,3.1892,3.1938,3.1988,3.206,3.2118,3.2155,3.2213,3.2247,3.2248,3.2261,3.2258,3.2264,3.2185,3.2167,3.2259,3.2259,3.2259,3.2259,3.2259,3.2259,3.159,3.1669,3.1688,3.1785,3.1818,3.1887,3.1917,3.1957,3.1994,3.2075,3.2124,3.2149,3.219,3.2251,3.2304,3.2313,3.2333,3.2347,3.2355,3.228,3.227,3.2261,3.2245,3.2352,3.2352,3.243,3.2431,3.2432]}]]